• In Portugal
  • List of Countries
  • For 7 days
  • Water Temperature
  • Satellite Maps
  • Weather Map
  • Weather Widgets
  • user-avatar
    Login

    Hourly Weather Tatarenkova

    Today, 24 May, Thursday

    Time Temperature Precipitation Wind Pressure Humidity
    00:00 +14°C° 0 mm 2 mps 746 mmHg 85%
    01:00 +14°C° 0 mm 2 mps 746 mmHg 87%
    02:00 +13°C° 0 mm 1 mps 746 mmHg 88%
    03:00 +14°C° 0 mm 2 mps 745 mmHg 87%
    04:00 +14°C° 0 mm 2 mps 745 mmHg 87%
    05:00 +14°C° 0 mm 2 mps 745 mmHg 86%
    06:00 +16°C° 0 mm 3 mps 745 mmHg 82%
    07:00 +18°C° 0 mm 3 mps 745 mmHg 78%
    08:00 +20°C° 0 mm 4 mps 745 mmHg 73%
    09:00 +21°C° 0 mm 4 mps 745 mmHg 69%
    10:00 +22°C° 0 mm 4 mps 745 mmHg 65%
    11:00 +23°C° 0 mm 4 mps 745 mmHg 61%
    12:00 +23°C° 0.1 mm 4 mps 745 mmHg 60%
    13:00 +25°C° 0.1 mm 4 mps 744 mmHg 60%
    14:00 +25°C° 0.1 mm 5 mps 744 mmHg 59%
    15:00 +23°C° 0.2 mm 4 mps 744 mmHg 63%
    16:00 +23°C° 0.2 mm 4 mps 744 mmHg 67%
    17:00 +22°C° 0.2 mm 4 mps 744 mmHg 72%
    18:00 +20°C° 0.1 mm 4 mps 744 mmHg 77%
    19:00 +19°C° 0.1 mm 3 mps 744 mmHg 82%
    20:00 +17°C° 0.1 mm 3 mps 744 mmHg 88%
    21:00 +16°C° 0 mm 3 mps 744 mmHg 88%
    22:00 +16°C° 0 mm 3 mps 744 mmHg 89%
    23:00 +14°C° 0 mm 4 mps 744 mmHg 90%

    Tomorrow, 25 May, Friday

    Time Temperature Precipitation Wind Pressure Humidity
    00:00 +14°C° 0 mm 4 mps 744 mmHg 89%
    01:00 +13°C° 0 mm 4 mps 744 mmHg 89%
    02:00 +13°C° 0 mm 4 mps 745 mmHg 88%
    03:00 +13°C° 0 mm 4 mps 745 mmHg 89%
    04:00 +13°C° 0 mm 5 mps 745 mmHg 89%
    05:00 +13°C° 0 mm 5 mps 745 mmHg 89%
    06:00 +14°C° 0 mm 5 mps 746 mmHg 86%
    07:00 +15°C° 0 mm 6 mps 746 mmHg 82%
    08:00 +17°C° 0 mm 6 mps 746 mmHg 78%
    09:00 +17°C° 0 mm 7 mps 747 mmHg 74%
    10:00 +18°C° 0 mm 7 mps 747 mmHg 70%
    11:00 +20°C° 0 mm 7 mps 747 mmHg 66%
    12:00 +20°C° 0 mm 7 mps 747 mmHg 63%
    13:00 +20°C° 0 mm 7 mps 748 mmHg 60%
    14:00 +18°C° 0 mm 7 mps 748 mmHg 57%
    15:00 +18°C° 0 mm 7 mps 748 mmHg 59%
    16:00 +17°C° 0 mm 6 mps 748 mmHg 61%
    17:00 +16°C° 0 mm 6 mps 749 mmHg 62%
    18:00 +15°C° 0 mm 5 mps 749 mmHg 65%
    19:00 +14°C° 0 mm 5 mps 750 mmHg 67%
    20:00 +12°C° 0 mm 4 mps 750 mmHg 70%
    21:00 +11°C° 0 mm 4 mps 751 mmHg 71%
    22:00 +11°C° 0 mm 4 mps 751 mmHg 72%
    23:00 +10°C° 0 mm 4 mps 752 mmHg 72%

    Day after tomorrow, 26 May, Saturday

    Time Temperature Precipitation Wind Pressure Humidity
    00:00 +8°C° 0 mm 4 mps 752 mmHg 73%
    01:00 +9°C° 0 mm 3 mps 752 mmHg 74%
    02:00 +8°C° 0 mm 3 mps 753 mmHg 75%
    03:00 +8°C° 0 mm 3 mps 753 mmHg 75%
    04:00 +8°C° 0 mm 3 mps 754 mmHg 75%
    05:00 +8°C° 0 mm 3 mps 754 mmHg 76%
    06:00 +10°C° 0 mm 4 mps 754 mmHg 69%
    07:00 +11°C° 0 mm 4 mps 755 mmHg 63%
    08:00 +13°C° 0 mm 4 mps 755 mmHg 56%
    09:00 +14°C° 0 mm 5 mps 755 mmHg 55%
    10:00 +15°C° 0 mm 5 mps 755 mmHg 53%
    11:00 +16°C° 0 mm 5 mps 756 mmHg 51%
    12:00 +16°C° 0 mm 5 mps 755 mmHg 51%
    13:00 +16°C° 0 mm 5 mps 755 mmHg 51%
    14:00 +17°C° 0 mm 5 mps 755 mmHg 51%
    15:00 +17°C° 0 mm 4 mps 755 mmHg 54%
    16:00 +17°C° 0 mm 4 mps 754 mmHg 57%
    17:00 +17°C° 0 mm 4 mps 754 mmHg 60%
    18:00 +14°C° 0 mm 3 mps 754 mmHg 66%
    19:00 +12°C° 0 mm 3 mps 754 mmHg 71%
    20:00 +12°C° 0 mm 2 mps 755 mmHg 77%
    21:00 +10°C° 0 mm 2 mps 755 mmHg 78%
    22:00 +9°C° 0 mm 2 mps 755 mmHg 79%
    23:00 +8°C° 0 mm 2 mps 755 mmHg 80%

    27 May, Sunday

    Time Temperature Precipitation Wind Pressure Humidity
    00:00 +8°C° 0 mm 2 mps 755 mmHg 82%
    01:00 +8°C° 0 mm 2 mps 755 mmHg 83%
    02:00 +7°C° 0 mm 2 mps 755 mmHg 84%
    03:00 +7°C° 0 mm 2 mps 755 mmHg 84%
    04:00 +9°C° 0 mm 1 mps 755 mmHg 83%
    05:00 +9°C° 0 mm 1 mps 755 mmHg 82%
    06:00 +11°C° 0 mm 1 mps 755 mmHg 75%
    07:00 +13°C° 0 mm 2 mps 755 mmHg 68%
    08:00 +15°C° 0 mm 2 mps 755 mmHg 61%
    09:00 +16°C° 0 mm 2 mps 754 mmHg 57%
    10:00 +17°C° 0 mm 2 mps 754 mmHg 53%
    11:00 +18°C° 0 mm 2 mps 754 mmHg 50%
    12:00 +18°C° 0 mm 2 mps 753 mmHg 49%
    13:00 +19°C° 0 mm 2 mps 753 mmHg 48%
    14:00 +19°C° 0 mm 2 mps 752 mmHg 48%
    15:00 +19°C° 0 mm 2 mps 752 mmHg 51%
    16:00 +19°C° 0 mm 2 mps 752 mmHg 53%
    17:00 +19°C° 0 mm 2 mps 751 mmHg 56%
    18:00 +18°C° 0 mm 1 mps 751 mmHg 62%
    19:00 +15°C° 0 mm 1 mps 751 mmHg 67%
    20:00 +13°C° 0 mm 1 mps 751 mmHg 73%
    21:00 +12°C° 0 mm 1 mps 751 mmHg 74%
    22:00 +12°C° 0 mm 1 mps 751 mmHg 75%
    23:00 +11°C° 0 mm 1 mps 751 mmHg 76%

    28 May, Monday

    Time Temperature Precipitation Wind Pressure Humidity
    00:00 +10°C° 0 mm 2 mps 751 mmHg 78%
    01:00 +9°C° 0 mm 2 mps 751 mmHg 80%
    02:00 +9°C° 0 mm 2 mps 751 mmHg 82%
    03:00 +9°C° 0 mm 2 mps 751 mmHg 82%
    04:00 +10°C° 0 mm 2 mps 751 mmHg 83%
    05:00 +10°C° 0 mm 2 mps 751 mmHg 83%
    06:00 +14°C° 0 mm 2 mps 751 mmHg 78%
    07:00 +16°C° 0 mm 2 mps 751 mmHg 74%
    08:00 +18°C° 0 mm 2 mps 751 mmHg 69%
    09:00 +19°C° 0 mm 3 mps 751 mmHg 66%
    10:00 +21°C° 0 mm 4 mps 752 mmHg 63%
    11:00 +22°C° 0 mm 4 mps 752 mmHg 59%
    12:00 +22°C° 0 mm 4 mps 752 mmHg 57%
    13:00 +22°C° 0 mm 5 mps 752 mmHg 56%
    14:00 +22°C° 0 mm 5 mps 752 mmHg 54%
    15:00 +21°C° 0 mm 5 mps 752 mmHg 56%
    16:00 +20°C° 0 mm 4 mps 752 mmHg 59%
    17:00 +20°C° 0 mm 4 mps 752 mmHg 62%
    18:00 +17°C° 0 mm 4 mps 753 mmHg 66%
    19:00 +14°C° 0 mm 3 mps 753 mmHg 69%
    20:00 +12°C° 0 mm 3 mps 753 mmHg 73%
    21:00 +11°C° 0 mm 3 mps 754 mmHg 73%
    22:00 +10°C° 0 mm 2 mps 754 mmHg 72%
    23:00 +10°C° 0 mm 2 mps 754 mmHg 72%

    29 May, Tuesday

    Time Temperature Precipitation Wind Pressure Humidity
    00:00 +9°C° 0 mm 2 mps 755 mmHg 72%
    01:00 +9°C° 0 mm 2 mps 755 mmHg 72%
    02:00 +8°C° 0 mm 2 mps 755 mmHg 72%
    03:00 +8°C° 0 mm 2 mps 755 mmHg 73%
    04:00 +10°C° 0 mm 1 mps 756 mmHg 73%
    05:00 +10°C° 0 mm 1 mps 756 mmHg 74%
    06:00 +12°C° 0 mm 1 mps 756 mmHg 68%
    07:00 +14°C° 0 mm 1 mps 756 mmHg 62%
    08:00 +16°C° 0 mm 1 mps 756 mmHg 56%
    09:00 +18°C° 0 mm 1 mps 756 mmHg 53%
    10:00 +20°C° 0 mm 1 mps 756 mmHg 50%
    11:00 +20°C° 0 mm 2 mps 756 mmHg 47%
    12:00 +21°C° 0 mm 1 mps 755 mmHg 47%
    13:00 +22°C° 0 mm 1 mps 755 mmHg 47%
    14:00 +23°C° 0 mm 1 mps 754 mmHg 47%
    15:00 +23°C° 0 mm 1 mps 754 mmHg 49%
    16:00 +22°C° 0 mm 1 mps 754 mmHg 51%
    17:00 +22°C° 0 mm 1 mps 753 mmHg 53%
    18:00 +20°C° 0 mm 1 mps 753 mmHg 60%
    19:00 +18°C° 0 mm 1 mps 753 mmHg 66%
    20:00 +15°C° 0 mm 1 mps 753 mmHg 72%
    21:00 +15°C° 0 mm 1 mps 752 mmHg 74%
    22:00 +14°C° 0 mm 1 mps 752 mmHg 76%
    23:00 +13°C° 0 mm 2 mps 752 mmHg 78%
    Show more